Simultaneous Nadir Overpasses (SNOs) Predictions

Prediction of SNOs between AQUA and GOES-15 Satellite Orbit:

Table of predicted SNOs for the next 14.0 days since TLE Epoch: 12/30/2016
Index Date Time (AQUA) AQUA Lat,Lon GOES-15 Lat,Lon Distance(km) Time Diff (sec)
1 12/31/2016 10:19:25 -0.84,-131.16 -0.06,-134.75 408.58 80
2 12/31/2016 22:40:49 -0.26,-136.35 0.07,-134.70 186.53 80
3 01/02/2017 22:28:37 0.32,-133.38 0.07,-134.61 140.10 80
4 01/03/2017 10:49:52 0.77,-138.54 -0.08,-134.61 446.76 80
5 01/04/2017 22:16:26 0.96,-130.42 0.07,-134.52 466.18 80
6 01/05/2017 10:37:42 0.13,-135.58 -0.07,-134.51 120.85 80
7 01/07/2017 10:25:30 -0.45,-132.61 -0.07,-134.41 204.44 80
8 01/07/2017 22:46:53 -0.64,-137.80 0.08,-134.36 391.24 80
9 01/09/2017 22:34:41 -0.04,-134.84 0.07,-134.25 66.79 80
10 01/11/2017 22:22:29 0.56,-131.87 0.06,-134.13 257.09 80
11 01/12/2017 10:43:45 0.54,-137.03 -0.07,-134.12 330.38 80




NCC Satellite Simultaneous Nadir Overpasses (SNOs) Prediction Service
